Location: Adrasan
(36.3319°N, 30.4314°E)
Time: 10:59:13
(UTC+00:00)

Meteor 1-10 Rocket - Pass Details

Date: 23 May 2024
Orbit: 834 x 910 km, 81.3° (Epoch: 16 June)

Event Time Altitude Azimuth Distance (km) Brightness Sun altitude
Exits shadow 19:55:38 24° 226° (SW) 1,752 5.7 -26.3°
Maximum altitude 19:58:41 42° 283° (WNW) 1,220 5.2 -26.6°
Drops below altitude 10° 20:04:03 10° 354° (N) 2,496 7.5 -27.1°
Sets 20:06:36 0° 1° (N) 3,425 8.3 -27.4°
